AUA235 HECA-LOWW

Flight info

Callsign AUA235
Flight time N/A
Altitude 40000
Route MENKU L617 NOZ L551 ANTAR DCT RIGRO DCT EVIVI L863 OKANA DCT PARAK DCT BALUX DCT TORNO DCT NATEX NATEX2W
Aircraft B772/H-SDE2E3FGHIJ5LORVWXY/LB1D1

Departure

Time 2026-05-06 15:25
Airport Cairo International Airport (HECA)

Arrival

Time N/A
Airport Vienna International Airport (LOWW)
Time Latitude Longitude Altitude Speed Heading
2026-05-06 15:09 30.10746 31.39701 379 ft 0 kts 254°
2026-05-06 15:15 30.10752 31.39719 379 ft 2 kts 249°
2026-05-06 15:15 30.10756 31.39731 379 ft 2 kts 243°
2026-05-06 15:16 30.10764 31.39748 379 ft 2 kts 232°
2026-05-06 15:16 30.10775 31.39762 379 ft 2 kts 215°
2026-05-06 15:16 30.10790 31.39770 379 ft 2 kts 191°
2026-05-06 15:16 30.10806 31.39772 379 ft 2 kts 172°
2026-05-06 15:17 30.10816 31.39770 379 ft 1 kts 167°
2026-05-06 15:17 30.10817 31.39769 379 ft 0 kts 167°
2026-05-06 15:19 30.10776 31.39782 379 ft 14 kts 166°
2026-05-06 15:19 30.10634 31.39824 379 ft 26 kts 165°
2026-05-06 15:19 30.10453 31.39871 379 ft 23 kts 186°
2026-05-06 15:20 30.10392 31.39829 379 ft 0 kts 227°
2026-05-06 15:21 30.10389 31.39825 379 ft 4 kts 227°
2026-05-06 15:22 30.10343 31.39768 379 ft 14 kts 228°
2026-05-06 15:22 30.10263 31.39665 379 ft 21 kts 228°
2026-05-06 15:22 30.10153 31.39582 379 ft 14 kts 164°
2026-05-06 15:22 30.10105 31.39615 379 ft 0 kts 142°
2026-05-06 15:23 30.10100 31.39619 379 ft 2 kts 142°
2026-05-06 15:23 30.10079 31.39639 379 ft 5 kts 141°
2026-05-06 15:23 30.10068 31.39648 379 ft 0 kts 141°
2026-05-06 15:24 30.10057 31.39660 379 ft 9 kts 139°
2026-05-06 15:24 30.10006 31.39782 379 ft 24 kts 93°
2026-05-06 15:24 30.10064 31.39959 379 ft 24 kts 49°
2026-05-06 15:25 30.10219 31.40163 379 ft 61 kts 48°
2026-05-06 15:25 30.10739 31.40850 387 ft 161 kts 43°
2026-05-06 15:25 30.11608 31.41950 998 ft 203 kts 45°
2026-05-06 15:25 30.12657 31.43175 2096 ft 218 kts 32°
2026-05-06 15:26 30.14147 31.43664 3262 ft 237 kts 356°
2026-05-06 15:26 30.15838 31.43190 4038 ft 277 kts 340°
2026-05-06 15:26 30.17801 31.42052 3791 ft 352 kts 329°
2026-05-06 15:26 30.19760 31.40294 3826 ft 350 kts 313°
2026-05-06 15:27 30.21035 31.38024 3753 ft 329 kts 298°
2026-05-06 15:27 30.21953 31.35695 3610 ft 315 kts 296°
2026-05-06 15:27 30.22911 31.33444 3524 ft 300 kts 300°
2026-05-06 15:27 30.23937 31.31455 3476 ft 286 kts 305°
2026-05-06 15:28 30.25049 31.29619 3453 ft 271 kts 309°
2026-05-06 15:28 30.26193 31.27924 3499 ft 264 kts 311°
2026-05-06 15:28 30.27364 31.26324 3793 ft 260 kts 313°
2026-05-06 15:28 30.28571 31.24753 4194 ft 263 kts 314°
2026-05-06 15:29 30.29814 31.23188 4567 ft 265 kts 315°
2026-05-06 15:29 30.31085 31.21628 4947 ft 268 kts 315°
2026-05-06 15:29 30.32378 31.20068 5320 ft 268 kts 316°
2026-05-06 15:29 30.33681 31.18517 5685 ft 268 kts 316°
2026-05-06 15:30 30.34988 31.16975 6062 ft 268 kts 316°
2026-05-06 15:30 30.36297 31.15440 6438 ft 268 kts 316°
2026-05-06 15:30 30.37620 31.13898 6810 ft 272 kts 316°
2026-05-06 15:30 30.38945 31.12353 7182 ft 276 kts 315°
2026-05-06 15:31 30.40301 31.10776 7555 ft 277 kts 315°
2026-05-06 15:31 30.41659 31.09197 7923 ft 276 kts 315°
2026-05-06 15:31 30.43014 31.07626 8285 ft 276 kts 315°
2026-05-06 15:32 30.45752 31.04452 9054 ft 284 kts 314°
2026-05-06 15:32 30.47160 31.02818 9440 ft 289 kts 314°
2026-05-06 15:32 30.48583 31.01165 9865 ft 290 kts 315°
2026-05-06 15:32 30.50006 30.99514 10334 ft 289 kts 314°
2026-05-06 15:33 30.51418 30.97876 10804 ft 289 kts 314°
2026-05-06 15:33 30.52917 30.96135 11361 ft 321 kts 314°
2026-05-06 15:33 30.54560 30.94223 11803 ft 342 kts 314°
2026-05-06 15:33 30.56266 30.92241 12212 ft 350 kts 314°
2026-05-06 15:34 30.57991 30.90236 12598 ft 351 kts 314°
2026-05-06 15:34 30.59718 30.88228 13015 ft 352 kts 314°
2026-05-06 15:34 30.61456 30.86207 13423 ft 354 kts 314°
2026-05-06 15:34 30.63201 30.84175 13846 ft 356 kts 313°
2026-05-06 15:35 30.64953 30.82134 14209 ft 358 kts 313°
2026-05-06 15:35 30.66715 30.80080 14583 ft 360 kts 313°
2026-05-06 15:35 30.68469 30.78034 14967 ft 362 kts 313°
2026-05-06 15:35 30.70253 30.75951 15343 ft 364 kts 313°
2026-05-06 15:36 30.72043 30.73860 15739 ft 366 kts 313°
2026-05-06 15:36 30.73843 30.71758 16144 ft 368 kts 313°
2026-05-06 15:36 30.75655 30.69640 16532 ft 369 kts 313°
2026-05-06 15:36 30.77471 30.67515 16942 ft 371 kts 313°
2026-05-06 15:37 30.79301 30.65373 17347 ft 373 kts 313°
2026-05-06 15:37 30.81138 30.63222 17758 ft 376 kts 313°
2026-05-06 15:37 30.82982 30.61060 18194 ft 377 kts 312°
2026-05-06 15:37 30.84814 30.58913 18585 ft 379 kts 312°
2026-05-06 15:38 30.86675 30.56730 18948 ft 380 kts 312°
2026-05-06 15:38 30.88539 30.54542 19071 ft 382 kts 312°
2026-05-06 15:38 30.90413 30.52341 19072 ft 382 kts 312°
2026-05-06 15:38 30.92278 30.50150 19081 ft 381 kts 312°
2026-05-06 15:39 30.94142 30.47959 19080 ft 380 kts 312°
2026-05-06 15:39 30.96003 30.45769 19251 ft 378 kts 312°
2026-05-06 15:39 30.97856 30.43587 19735 ft 381 kts 312°
2026-05-06 15:39 30.99734 30.41374 20229 ft 385 kts 312°
2026-05-06 15:40 31.01626 30.39142 20727 ft 388 kts 313°
2026-05-06 15:40 31.03529 30.36898 21223 ft 390 kts 313°
2026-05-06 15:40 31.05439 30.34645 21725 ft 391 kts 313°
2026-05-06 15:40 31.07358 30.32379 22238 ft 393 kts 313°
2026-05-06 15:41 31.09107 30.29967 22734 ft 390 kts 300°
2026-05-06 15:41 31.10210 30.27120 23270 ft 392 kts 287°
2026-05-06 15:41 31.10870 30.24042 23797 ft 392 kts 284°
2026-05-06 15:41 31.11631 30.20962 24259 ft 397 kts 287°
2026-05-06 15:42 31.12495 30.17879 24727 ft 401 kts 288°
2026-05-06 15:42 31.13387 30.14775 25206 ft 405 kts 288°
2026-05-06 15:42 31.14274 30.11646 25677 ft 407 kts 288°
2026-05-06 15:42 31.15149 30.08496 26184 ft 409 kts 287°
2026-05-06 15:43 31.16016 30.05336 26673 ft 410 kts 287°
2026-05-06 15:43 31.16881 30.02160 27172 ft 410 kts 287°
2026-05-06 15:43 31.17760 29.98995 27675 ft 405 kts 290°
2026-05-06 15:43 31.19131 29.96126 28152 ft 407 kts 306°
2026-05-06 15:44 31.21137 29.93778 28700 ft 410 kts 319°
2026-05-06 15:44 31.23547 29.91982 29156 ft 413 kts 328°
2026-05-06 15:44 31.26097 29.90424 29573 ft 414 kts 329°
2026-05-06 15:44 31.28619 29.88886 29993 ft 415 kts 328°
2026-05-06 15:45 31.31183 29.87318 30374 ft 416 kts 328°
2026-05-06 15:45 31.33736 29.85746 30723 ft 416 kts 328°
2026-05-06 15:45 31.36295 29.84161 31080 ft 416 kts 328°
2026-05-06 15:45 31.38850 29.82571 31447 ft 416 kts 328°
2026-05-06 15:46 31.41403 29.80975 31829 ft 415 kts 328°
2026-05-06 15:46 31.43947 29.79383 32206 ft 414 kts 328°
2026-05-06 15:46 31.46482 29.77793 32586 ft 413 kts 328°
2026-05-06 15:46 31.49011 29.76207 32964 ft 411 kts 328°
2026-05-06 15:47 31.51528 29.74626 33345 ft 409 kts 328°
2026-05-06 15:47 31.54028 29.73055 33748 ft 407 kts 328°
2026-05-06 15:47 31.56502 29.71500 34133 ft 406 kts 328°
2026-05-06 15:47 31.58990 29.69935 34474 ft 404 kts 328°
2026-05-06 15:48 31.61457 29.68382 34821 ft 401 kts 328°
2026-05-06 15:48 31.63908 29.66838 35165 ft 399 kts 328°
2026-05-06 15:48 31.66344 29.65303 35518 ft 397 kts 327°
2026-05-06 15:48 31.68774 29.63771 35884 ft 394 kts 327°
2026-05-06 15:49 31.71179 29.62254 36245 ft 391 kts 327°
2026-05-06 15:49 31.73572 29.60743 36601 ft 388 kts 327°
2026-05-06 15:49 31.75938 29.59249 36977 ft 385 kts 327°
2026-05-06 15:49 31.78288 29.57764 37348 ft 381 kts 327°
2026-05-06 15:50 31.80613 29.56293 37729 ft 378 kts 327°
2026-05-06 15:50 31.82884 29.54856 38133 ft 373 kts 327°
2026-05-06 15:50 31.85163 29.53413 38530 ft 369 kts 327°
2026-05-06 15:50 31.87411 29.51989 38889 ft 364 kts 327°
2026-05-06 15:51 31.89622 29.50587 39195 ft 358 kts 326°
2026-05-06 15:51 31.91802 29.49205 39512 ft 352 kts 326°
2026-05-06 15:51 31.93941 29.47846 39765 ft 347 kts 326°
2026-05-06 15:51 31.96075 29.46488 39738 ft 351 kts 326°
2026-05-06 15:52 31.98248 29.45104 39605 ft 359 kts 326°
2026-05-06 15:52 32.00459 29.43697 39605 ft 361 kts 326°
2026-05-06 15:52 32.02659 29.42298 39821 ft 357 kts 326°
2026-05-06 15:52 32.04830 29.40914 40015 ft 355 kts 326°
2026-05-06 15:53 32.09176 29.38133 40044 ft 359 kts 326°
2026-05-06 15:53 32.13592 29.35305 40101 ft 364 kts 326°
2026-05-06 15:54 32.18077 29.32431 40113 ft 370 kts 326°
2026-05-06 15:54 32.22641 29.29504 40114 ft 377 kts 326°
2026-05-06 15:55 32.27290 29.26525 40117 ft 384 kts 327°
2026-05-06 15:55 32.32032 29.23485 40113 ft 391 kts 327°
2026-05-06 15:56 32.36858 29.20387 40112 ft 398 kts 327°
2026-05-06 15:56 32.40937 29.17765 40112 ft 404 kts 327°
2026-05-06 15:57 32.45923 29.14557 40112 ft 411 kts 327°
2026-05-06 15:57 32.51002 29.11285 40112 ft 418 kts 327°
2026-05-06 15:58 32.56146 29.07966 40112 ft 424 kts 327°
2026-05-06 15:58 32.61366 29.04594 40112 ft 430 kts 327°
2026-05-06 15:59 32.66620 29.01195 40119 ft 435 kts 327°
2026-05-06 15:59 32.71970 28.97730 40113 ft 440 kts 327°
2026-05-06 16:00 32.77372 28.94227 40115 ft 444 kts 327°
2026-05-06 16:00 32.82803 28.90699 40108 ft 447 kts 327°
2026-05-06 16:01 32.88274 28.87141 40107 ft 449 kts 327°
2026-05-06 16:01 32.93745 28.83579 40097 ft 447 kts 327°
2026-05-06 16:02 32.99190 28.80028 40107 ft 444 kts 327°
2026-05-06 16:02 33.04562 28.76519 40102 ft 441 kts 327°
2026-05-06 16:03 33.09964 28.72985 40096 ft 439 kts 327°
2026-05-06 16:03 33.15279 28.69502 40100 ft 438 kts 327°
2026-05-06 16:04 33.20636 28.65987 40106 ft 439 kts 327°
2026-05-06 16:04 33.25996 28.62464 40120 ft 440 kts 327°
2026-05-06 16:05 33.31347 28.58944 40101 ft 442 kts 327°
2026-05-06 16:05 33.36749 28.55385 40099 ft 443 kts 327°
2026-05-06 16:06 33.42157 28.51816 40102 ft 444 kts 327°
2026-05-06 16:06 33.47581 28.48233 40101 ft 444 kts 327°
2026-05-06 16:07 33.52998 28.44649 40113 ft 445 kts 327°
2026-05-06 16:07 33.58379 28.41083 40099 ft 444 kts 327°
2026-05-06 16:08 33.63791 28.37491 40099 ft 444 kts 327°
2026-05-06 16:08 33.69184 28.33907 40099 ft 443 kts 327°
2026-05-06 16:09 33.74568 28.30323 40098 ft 442 kts 327°
2026-05-06 16:09 33.79944 28.26740 40111 ft 441 kts 328°
2026-05-06 16:10 33.85400 28.23338 40101 ft 442 kts 330°
2026-05-06 16:10 33.90924 28.20087 40098 ft 442 kts 330°
2026-05-06 16:11 33.96444 28.16820 40094 ft 441 kts 330°
2026-05-06 16:11 34.01942 28.13528 40095 ft 441 kts 330°
2026-05-06 16:12 34.07423 28.10226 40115 ft 441 kts 330°
2026-05-06 16:12 34.12909 28.06913 40089 ft 440 kts 330°
2026-05-06 16:13 34.18390 28.03598 40091 ft 440 kts 330°
2026-05-06 16:13 34.23832 28.00303 40085 ft 440 kts 330°
2026-05-06 16:14 34.29313 27.96980 40082 ft 440 kts 330°
2026-05-06 16:14 34.34800 27.93649 40116 ft 440 kts 330°
2026-05-06 16:15 34.40284 27.90314 40092 ft 440 kts 330°
2026-05-06 16:15 34.45758 27.86980 40090 ft 440 kts 330°
2026-05-06 16:16 34.51226 27.83646 40093 ft 440 kts 330°
2026-05-06 16:16 34.56688 27.80309 40098 ft 439 kts 330°
2026-05-06 16:17 34.62146 27.76971 40102 ft 439 kts 330°
2026-05-06 16:17 34.67601 27.73629 40090 ft 439 kts 330°
2026-05-06 16:18 34.73012 27.70309 40087 ft 438 kts 330°
2026-05-06 16:18 34.78463 27.66961 40087 ft 438 kts 330°
2026-05-06 16:19 34.83893 27.63619 40084 ft 437 kts 330°
2026-05-06 16:19 34.89361 27.60250 40099 ft 437 kts 330°
2026-05-06 16:20 34.94751 27.56923 40090 ft 437 kts 330°
2026-05-06 16:20 35.00179 27.53568 40084 ft 437 kts 330°
2026-05-06 16:21 35.05611 27.50205 40082 ft 437 kts 330°
2026-05-06 16:21 35.10996 27.46867 40076 ft 437 kts 330°
2026-05-06 16:22 35.16414 27.43503 40079 ft 437 kts 330°
2026-05-06 16:22 35.21835 27.40132 40080 ft 437 kts 330°
2026-05-06 16:23 35.27260 27.36754 40080 ft 438 kts 330°
2026-05-06 16:23 35.32677 27.33375 40082 ft 438 kts 330°
2026-05-06 16:24 35.38064 27.30010 40082 ft 438 kts 330°
2026-05-06 16:24 35.43469 27.26630 40094 ft 439 kts 330°
2026-05-06 16:25 35.48888 27.23235 40089 ft 438 kts 329°
2026-05-06 16:25 35.54339 27.19814 40083 ft 437 kts 329°
2026-05-06 16:26 35.59723 27.16431 40058 ft 436 kts 330°
2026-05-06 16:26 35.65101 27.13047 40078 ft 434 kts 330°
2026-05-06 16:27 35.70446 27.09677 40091 ft 433 kts 329°
2026-05-06 16:27 35.75838 27.06273 40089 ft 433 kts 329°
2026-05-06 16:28 35.81188 27.02890 40088 ft 433 kts 329°
2026-05-06 16:28 35.86543 26.99499 40088 ft 432 kts 329°
2026-05-06 16:29 35.91866 26.96123 40087 ft 433 kts 329°
2026-05-06 16:29 35.97239 26.92710 40083 ft 433 kts 329°
2026-05-06 16:30 36.01701 26.89871 40100 ft 433 kts 329°
2026-05-06 16:30 36.07925 26.85906 40099 ft 433 kts 329°
2026-05-06 16:31 36.13283 26.82487 40098 ft 433 kts 329°
2026-05-06 16:31 36.18677 26.79040 40078 ft 434 kts 329°
2026-05-06 16:32 36.24015 26.75623 40083 ft 434 kts 329°
2026-05-06 16:32 36.29364 26.72194 40088 ft 434 kts 329°
2026-05-06 16:33 36.34763 26.68727 40086 ft 434 kts 329°
2026-05-06 16:34 36.42824 26.63541 40089 ft 434 kts 329°
2026-05-06 16:34 36.48165 26.60098 40101 ft 434 kts 329°
2026-05-06 16:35 36.53515 26.56644 40092 ft 434 kts 329°
2026-05-06 16:35 36.58877 26.53177 40083 ft 434 kts 329°
2026-05-06 16:36 36.64229 26.49711 40086 ft 434 kts 329°
2026-05-06 16:36 36.69600 26.46226 40090 ft 434 kts 329°
2026-05-06 16:37 36.74923 26.42768 40108 ft 434 kts 329°
2026-05-06 16:37 36.80267 26.39290 40093 ft 434 kts 329°
2026-05-06 16:38 36.85639 26.35789 40086 ft 433 kts 329°
2026-05-06 16:38 36.90951 26.32321 40085 ft 433 kts 329°
2026-05-06 16:39 36.96314 26.28815 40088 ft 433 kts 329°
2026-05-06 16:39 37.01624 26.25337 40086 ft 432 kts 330°
2026-05-06 16:40 37.06941 26.21849 40087 ft 432 kts 330°
2026-05-06 16:40 37.12295 26.18332 40084 ft 432 kts 330°
2026-05-06 16:41 37.17665 26.14798 40086 ft 432 kts 330°
2026-05-06 16:41 37.22990 26.11288 40085 ft 433 kts 330°
2026-05-06 16:42 37.28324 26.07767 40094 ft 433 kts 329°
2026-05-06 16:42 37.32792 26.04812 40082 ft 433 kts 329°
2026-05-06 16:43 37.38083 26.01309 40082 ft 433 kts 329°
2026-05-06 16:43 37.43415 25.97772 40082 ft 433 kts 329°
2026-05-06 16:44 37.48741 25.94234 40070 ft 433 kts 330°
2026-05-06 16:44 37.54066 25.90690 40083 ft 433 kts 330°
2026-05-06 16:45 37.60266 25.86574 40075 ft 433 kts 330°
2026-05-06 16:45 37.64826 25.83796 40077 ft 434 kts 332°
2026-05-06 16:46 37.70315 25.80577 40080 ft 435 kts 332°
2026-05-06 16:46 37.75794 25.77341 40076 ft 435 kts 332°
2026-05-06 16:47 37.81226 25.74095 40074 ft 435 kts 332°
2026-05-06 16:47 37.86694 25.70808 40074 ft 435 kts 332°
2026-05-06 16:48 37.92159 25.67515 40076 ft 435 kts 332°
2026-05-06 16:48 37.97630 25.64214 40076 ft 435 kts 332°
2026-05-06 16:49 38.03094 25.60910 40075 ft 435 kts 332°
2026-05-06 16:49 38.08571 25.57595 40071 ft 436 kts 332°
2026-05-06 16:50 38.14028 25.54286 40073 ft 437 kts 332°
2026-05-06 16:50 38.19518 25.50951 40072 ft 437 kts 332°
2026-05-06 16:51 38.25015 25.47607 40071 ft 438 kts 332°
2026-05-06 16:51 38.30457 25.44290 40074 ft 438 kts 332°
2026-05-06 16:52 38.35958 25.40932 40070 ft 438 kts 332°
2026-05-06 16:52 38.41453 25.37572 40068 ft 438 kts 332°
2026-05-06 16:53 38.46946 25.34207 40068 ft 437 kts 332°
2026-05-06 16:53 38.52439 25.30838 40068 ft 437 kts 332°
2026-05-06 16:54 38.57932 25.27461 40068 ft 437 kts 332°
2026-05-06 16:54 38.63416 25.24085 40063 ft 437 kts 332°
2026-05-06 16:55 38.68906 25.20699 40065 ft 437 kts 332°
2026-05-06 16:55 38.74390 25.17311 40062 ft 437 kts 332°
2026-05-06 16:56 38.79849 25.13933 40064 ft 437 kts 332°
2026-05-06 16:56 38.85330 25.10535 40062 ft 437 kts 332°
2026-05-06 16:57 38.90800 25.07138 40065 ft 437 kts 332°
2026-05-06 16:57 38.96285 25.03727 40061 ft 437 kts 332°
2026-05-06 16:58 39.01755 25.00318 40056 ft 437 kts 332°
2026-05-06 16:58 39.07226 24.96903 40060 ft 437 kts 332°
2026-05-06 16:59 39.12698 24.93481 40060 ft 437 kts 332°
2026-05-06 16:59 39.18142 24.90071 40061 ft 437 kts 332°
2026-05-06 17:00 39.23618 24.86635 40065 ft 438 kts 332°
2026-05-06 17:00 39.29099 24.83190 40060 ft 438 kts 332°
2026-05-06 17:01 39.34588 24.79734 40060 ft 438 kts 332°
2026-05-06 17:01 39.40074 24.76274 40056 ft 438 kts 332°
2026-05-06 17:02 39.45527 24.72828 40057 ft 438 kts 332°
2026-05-06 17:02 39.51015 24.69355 40063 ft 438 kts 332°
2026-05-06 17:03 39.56497 24.65879 40055 ft 438 kts 332°
2026-05-06 17:03 39.61972 24.62400 40055 ft 438 kts 332°
2026-05-06 17:04 39.67442 24.58920 40055 ft 438 kts 332°
2026-05-06 17:04 39.72911 24.55434 40065 ft 437 kts 332°
2026-05-06 17:05 39.78371 24.51947 40058 ft 437 kts 332°
2026-05-06 17:05 39.78409 24.51922 40058 ft 437 kts 332°
2026-05-06 17:08 39.83137 24.48898 40049 ft 437 kts 332°
2026-05-06 17:08 39.88551 24.45429 40052 ft 436 kts 331°
2026-05-06 17:09 39.94008 24.41926 40050 ft 436 kts 331°
2026-05-06 17:09 39.99456 24.38423 40047 ft 436 kts 331°
2026-05-06 17:10 40.04388 24.35246 40045 ft 437 kts 331°
2026-05-06 17:11 40.08798 24.32401 40051 ft 437 kts 331°
2026-05-06 17:11 40.14112 24.28968 40056 ft 438 kts 331°
2026-05-06 17:12 40.19694 24.25353 40035 ft 439 kts 331°
2026-05-06 17:12 40.25179 24.21797 40034 ft 439 kts 331°
2026-05-06 17:13 40.30619 24.18262 40034 ft 440 kts 331°
2026-05-06 17:13 40.36113 24.14687 40045 ft 440 kts 331°
2026-05-06 17:14 40.41596 24.11112 40035 ft 439 kts 331°
2026-05-06 17:14 40.47074 24.07534 40035 ft 439 kts 331°
2026-05-06 17:15 40.52546 24.03952 40026 ft 439 kts 331°
2026-05-06 17:15 40.57990 24.00383 40034 ft 439 kts 331°
2026-05-06 17:16 40.63477 23.96779 40030 ft 440 kts 331°
2026-05-06 17:16 40.68953 23.93175 40036 ft 440 kts 331°
2026-05-06 17:17 40.74396 23.89587 40035 ft 441 kts 331°
2026-05-06 17:17 40.79890 23.85958 40022 ft 441 kts 331°
2026-05-06 17:18 40.85341 23.82350 40027 ft 441 kts 331°
2026-05-06 17:18 40.90865 23.78688 40030 ft 441 kts 331°
2026-05-06 17:19 40.96350 23.75045 40025 ft 441 kts 331°
2026-05-06 17:19 41.01805 23.71415 40013 ft 442 kts 331°
2026-05-06 17:20 41.07306 23.67747 40016 ft 442 kts 331°
2026-05-06 17:20 41.12804 23.64075 40012 ft 443 kts 331°
2026-05-06 17:21 41.18310 23.60390 40033 ft 443 kts 331°
2026-05-06 17:21 41.23817 23.56697 40021 ft 443 kts 331°
2026-05-06 17:22 41.29320 23.52999 40023 ft 443 kts 330°
2026-05-06 17:22 41.34826 23.49294 39999 ft 443 kts 330°
2026-05-06 17:23 41.40319 23.45590 40034 ft 443 kts 330°
2026-05-06 17:23 41.45824 23.41967 40012 ft 444 kts 332°
2026-05-06 17:24 41.50485 23.38948 40038 ft 443 kts 332°
2026-05-06 17:24 41.55998 23.35366 40039 ft 444 kts 332°
2026-05-06 17:25 41.61552 23.31737 40041 ft 444 kts 331°
2026-05-06 17:25 41.67102 23.28099 40039 ft 444 kts 331°
2026-05-06 17:26 41.72651 23.24453 40042 ft 444 kts 331°
2026-05-06 17:26 41.78200 23.20800 40041 ft 444 kts 331°
2026-05-06 17:27 41.83761 23.17133 40036 ft 445 kts 331°
2026-05-06 17:27 41.89319 23.13461 40033 ft 445 kts 331°
2026-05-06 17:28 41.94845 23.09802 40020 ft 445 kts 331°
2026-05-06 17:28 42.00411 23.06111 40020 ft 445 kts 331°
2026-05-06 17:29 42.05973 23.02414 40022 ft 445 kts 331°
2026-05-06 17:29 42.11530 22.98713 40022 ft 445 kts 331°
2026-05-06 17:30 42.17091 22.95002 40012 ft 445 kts 331°
2026-05-06 17:30 42.22645 22.91288 40020 ft 446 kts 331°
2026-05-06 17:31 42.28172 22.87586 40019 ft 446 kts 331°
2026-05-06 17:31 42.33739 22.83846 40011 ft 446 kts 331°
2026-05-06 17:32 42.39303 22.80099 40007 ft 447 kts 331°
2026-05-06 17:32 42.44866 22.76346 40001 ft 447 kts 331°
2026-05-06 17:33 42.50432 22.72581 40003 ft 446 kts 331°
2026-05-06 17:33 42.55992 22.68815 40007 ft 446 kts 331°
2026-05-06 17:34 42.61552 22.65041 40006 ft 447 kts 331°
2026-05-06 17:34 42.67115 22.61254 40009 ft 447 kts 330°
2026-05-06 17:35 42.72674 22.57463 40006 ft 447 kts 330°
2026-05-06 17:35 42.78199 22.53687 40005 ft 448 kts 330°
2026-05-06 17:36 42.86573 22.47955 40001 ft 449 kts 330°
2026-05-06 17:36 42.92161 22.44157 39988 ft 449 kts 331°
2026-05-06 17:37 42.97759 22.40353 39993 ft 450 kts 331°
2026-05-06 17:37 43.03367 22.36533 39973 ft 449 kts 330°
2026-05-06 17:38 43.08928 22.32730 39969 ft 449 kts 330°
2026-05-06 17:38 43.14517 22.28901 39960 ft 448 kts 330°
2026-05-06 17:39 43.20090 22.25074 39970 ft 448 kts 330°
2026-05-06 17:39 43.25678 22.21231 39960 ft 449 kts 330°
2026-05-06 17:40 43.31263 22.17380 39947 ft 450 kts 330°
2026-05-06 17:40 43.36863 22.13511 39952 ft 450 kts 330°
2026-05-06 17:41 43.42433 22.09656 39947 ft 451 kts 330°
2026-05-06 17:41 43.48042 22.05765 39948 ft 451 kts 330°
2026-05-06 17:42 43.53645 22.01871 39944 ft 451 kts 330°
2026-05-06 17:42 43.59254 21.97964 39946 ft 451 kts 330°
2026-05-06 17:43 43.64857 21.94053 39954 ft 451 kts 330°
2026-05-06 17:43 43.70460 21.90134 39943 ft 451 kts 330°
2026-05-06 17:44 43.76048 21.86217 39948 ft 450 kts 330°
2026-05-06 17:44 43.81640 21.82289 39950 ft 450 kts 330°
2026-05-06 17:45 43.87192 21.78381 39958 ft 449 kts 330°
2026-05-06 17:45 43.92765 21.74449 39950 ft 449 kts 330°
2026-05-06 17:46 43.98344 21.70505 39946 ft 449 kts 330°
2026-05-06 17:46 44.03915 21.66558 39948 ft 449 kts 330°
2026-05-06 17:47 44.09483 21.62605 39948 ft 449 kts 330°
2026-05-06 17:47 44.15065 21.58634 39949 ft 450 kts 330°
2026-05-06 17:48 44.20647 21.54654 39942 ft 451 kts 330°
2026-05-06 17:48 44.26199 21.50687 39942 ft 451 kts 330°
2026-05-06 17:49 44.31796 21.46679 39937 ft 452 kts 330°
2026-05-06 17:49 44.37391 21.42665 39937 ft 452 kts 330°
2026-05-06 17:50 44.42987 21.38641 39927 ft 452 kts 330°
2026-05-06 17:50 44.48590 21.34603 39926 ft 452 kts 329°
2026-05-06 17:51 44.54191 21.30557 39927 ft 452 kts 329°
2026-05-06 17:51 44.59764 21.26523 39928 ft 453 kts 329°
2026-05-06 17:52 44.65387 21.22444 39929 ft 455 kts 329°
2026-05-06 17:52 44.71039 21.18334 39933 ft 458 kts 329°
2026-05-06 17:53 44.76720 21.14194 39905 ft 461 kts 329°
2026-05-06 17:53 44.82435 21.10021 39924 ft 463 kts 329°
2026-05-06 17:54 44.88163 21.05829 39922 ft 464 kts 329°
2026-05-06 17:54 44.93860 21.01650 39910 ft 465 kts 329°
2026-05-06 17:55 44.99592 20.97437 39912 ft 462 kts 329°
2026-05-06 17:55 45.02413 20.95363 39906 ft 451 kts 329°
2026-05-06 17:55 45.05191 20.93319 39906 ft 447 kts 329°
2026-05-06 17:56 45.10728 20.89226 39931 ft 450 kts 329°
2026-05-06 17:56 45.16261 20.85126 39918 ft 453 kts 329°
2026-05-06 17:57 45.21867 20.80967 39920 ft 455 kts 328°
2026-05-06 17:57 45.27491 20.76785 39926 ft 457 kts 329°
2026-05-06 17:58 45.33135 20.72581 39914 ft 458 kts 328°
2026-05-06 17:58 45.38750 20.68390 39900 ft 448 kts 328°
2026-05-06 17:59 45.44148 20.64357 39907 ft 437 kts 328°
2026-05-06 17:59 45.49554 20.60295 39929 ft 443 kts 328°
2026-05-06 18:00 45.55046 20.56160 39925 ft 448 kts 328°
2026-05-06 18:00 45.60560 20.52008 39915 ft 448 kts 328°
2026-05-06 18:01 45.66072 20.47847 39908 ft 448 kts 328°
2026-05-06 18:01 45.71571 20.43686 39906 ft 447 kts 328°
2026-05-06 18:02 45.77063 20.39520 39915 ft 446 kts 328°
2026-05-06 18:02 45.82548 20.35350 39903 ft 446 kts 328°
2026-05-06 18:03 45.88028 20.31174 39907 ft 445 kts 328°
2026-05-06 18:03 45.93461 20.27025 39910 ft 445 kts 328°
2026-05-06 18:04 45.98927 20.22841 39906 ft 445 kts 328°
2026-05-06 18:04 46.04427 20.18621 39909 ft 445 kts 328°
2026-05-06 18:05 46.09863 20.14441 39905 ft 446 kts 328°
2026-05-06 18:05 46.15340 20.10221 39906 ft 446 kts 328°
2026-05-06 18:06 46.20801 20.05930 39905 ft 447 kts 327°
2026-05-06 18:06 46.26234 20.01555 39916 ft 447 kts 327°
2026-05-06 18:07 46.30754 19.97905 39904 ft 448 kts 327°
2026-05-06 18:07 46.36202 19.93509 39913 ft 448 kts 327°
2026-05-06 18:08 46.41648 19.89112 39909 ft 448 kts 327°
2026-05-06 18:08 46.47088 19.84713 39914 ft 447 kts 327°
2026-05-06 18:09 46.52518 19.80310 39916 ft 447 kts 327°
2026-05-06 18:09 46.57946 19.75899 39916 ft 446 kts 327°
2026-05-06 18:10 46.63334 19.71510 39907 ft 446 kts 327°
2026-05-06 18:10 46.68781 19.67062 39907 ft 446 kts 327°
2026-05-06 18:11 46.74189 19.62636 39921 ft 446 kts 326°
2026-05-06 18:11 46.79605 19.58193 39914 ft 446 kts 326°
2026-05-06 18:12 46.84984 19.53770 39910 ft 446 kts 326°
2026-05-06 18:12 46.90404 19.49303 39916 ft 447 kts 326°
2026-05-06 18:13 46.95832 19.44820 39907 ft 448 kts 326°
2026-05-06 18:13 47.01274 19.40313 39910 ft 449 kts 326°
2026-05-06 18:14 47.06721 19.35792 39899 ft 450 kts 326°
2026-05-06 18:14 47.12169 19.31259 39896 ft 450 kts 326°
2026-05-06 18:15 47.17593 19.26736 39885 ft 451 kts 326°
2026-05-06 18:15 47.23055 19.22169 39881 ft 452 kts 326°
2026-05-06 18:16 47.28525 19.17586 39898 ft 452 kts 326°
2026-05-06 18:16 47.33728 19.12552 39879 ft 441 kts 309°
2026-05-06 18:17 47.35518 19.08948 39877 ft 432 kts 294°
2026-05-06 18:17 47.36672 19.04898 39875 ft 426 kts 287°
2026-05-06 18:17 47.39044 18.96825 39884 ft 432 kts 291°
2026-05-06 18:18 47.41630 18.88778 39889 ft 435 kts 292°
2026-05-06 18:18 47.44207 18.80639 39886 ft 438 kts 291°
2026-05-06 18:19 47.46765 18.72427 39879 ft 440 kts 291°
2026-05-06 18:19 47.49304 18.64228 39891 ft 441 kts 291°
2026-05-06 18:20 47.51855 18.55970 39881 ft 441 kts 291°
2026-05-06 18:20 47.54374 18.47685 39864 ft 439 kts 287°
2026-05-06 18:21 47.56239 18.39186 39862 ft 435 kts 283°
2026-05-06 18:21 47.57966 18.30627 39860 ft 433 kts 283°